When you browse on this site, cookies collect data to enhance your experience and personalize the content and advertising you see.
Visit our Privacy Policy to learn more. By continuing to use the site, you agree to this use of cookies and data.
  • In Spain
  • List of Countries
  • For 7 days
  • Water Temperature
  • Satellite Maps
  • Weather Map
  • Weather Widgets
  • user-avatar
    Login

    Hourly Weather Burajda

    Today, 17 December, Monday

    Time Temperature Precipitation Wind Pressure Humidity
    00:00 +20°C° 0 mm 5 mps 712 mmHg 55%
    01:00 +19°C° 0 mm 5 mps 711 mmHg 56%
    02:00 +19°C° 0 mm 5 mps 711 mmHg 57%
    03:00 +19°C° 0 mm 5 mps 711 mmHg 58%
    04:00 +17°C° 0 mm 5 mps 711 mmHg 59%
    05:00 +17°C° 0 mm 5 mps 710 mmHg 60%
    06:00 +17°C° 0 mm 5 mps 710 mmHg 61%
    07:00 +19°C° 0 mm 6 mps 710 mmHg 58%
    08:00 +19°C° 0 mm 6 mps 710 mmHg 54%
    09:00 +20°C° 0 mm 7 mps 711 mmHg 51%
    10:00 +22°C° 0 mm 7 mps 710 mmHg 47%
    11:00 +23°C° 0 mm 7 mps 710 mmHg 42%
    12:00 +24°C° 0 mm 7 mps 710 mmHg 38%
    13:00 +26°C° 0 mm 7 mps 709 mmHg 36%
    14:00 +27°C° 0 mm 7 mps 709 mmHg 34%
    15:00 +27°C° 0 mm 6 mps 708 mmHg 32%
    16:00 +27°C° 0 mm 5 mps 708 mmHg 34%
    17:00 +26°C° 0 mm 5 mps 708 mmHg 36%
    18:00 +25°C° 0 mm 4 mps 708 mmHg 37%
    19:00 +25°C° 0 mm 4 mps 708 mmHg 38%
    20:00 +23°C° 0 mm 4 mps 709 mmHg 39%
    21:00 +23°C° 0 mm 4 mps 709 mmHg 40%
    22:00 +22°C° 0 mm 5 mps 709 mmHg 41%
    23:00 +22°C° 0 mm 5 mps 709 mmHg 43%

    Tomorrow, 18 December, Tuesday

    Time Temperature Precipitation Wind Pressure Humidity
    00:00 +22°C° 0 mm 5 mps 709 mmHg 44%
    01:00 +21°C° 0 mm 4 mps 709 mmHg 49%
    02:00 +20°C° 0 mm 4 mps 709 mmHg 55%
    03:00 +19°C° 0 mm 4 mps 709 mmHg 60%
    04:00 +19°C° 0 mm 4 mps 709 mmHg 65%
    05:00 +18°C° 0 mm 4 mps 709 mmHg 70%
    06:00 +18°C° 0 mm 4 mps 710 mmHg 75%
    07:00 +18°C° 0 mm 4 mps 710 mmHg 73%
    08:00 +18°C° 0 mm 4 mps 711 mmHg 70%
    09:00 +19°C° 0 mm 4 mps 711 mmHg 67%
    10:00 +20°C° 0 mm 5 mps 711 mmHg 60%
    11:00 +21°C° 0 mm 5 mps 711 mmHg 53%
    12:00 +22°C° 0 mm 5 mps 711 mmHg 46%
    13:00 +23°C° 0 mm 5 mps 711 mmHg 43%
    14:00 +23°C° 0 mm 5 mps 710 mmHg 41%
    15:00 +23°C° 0 mm 6 mps 710 mmHg 38%
    16:00 +22°C° 0 mm 5 mps 710 mmHg 39%
    17:00 +22°C° 0 mm 5 mps 710 mmHg 40%
    18:00 +21°C° 0 mm 4 mps 711 mmHg 41%
    19:00 +20°C° 0 mm 4 mps 711 mmHg 43%
    20:00 +20°C° 0 mm 4 mps 711 mmHg 44%
    21:00 +19°C° 0 mm 4 mps 711 mmHg 46%
    22:00 +19°C° 0 mm 4 mps 711 mmHg 48%
    23:00 +18°C° 0 mm 4 mps 711 mmHg 50%

    Day after tomorrow, 19 December, Wednesday

    Time Temperature Precipitation Wind Pressure Humidity
    00:00 +18°C° 0 mm 4 mps 711 mmHg 52%
    01:00 +17°C° 0 mm 4 mps 711 mmHg 54%
    02:00 +17°C° 0 mm 4 mps 711 mmHg 55%
    03:00 +15°C° 0 mm 4 mps 711 mmHg 56%
    04:00 +15°C° 0 mm 4 mps 711 mmHg 57%
    05:00 +15°C° 0 mm 4 mps 711 mmHg 58%
    06:00 +14°C° 0 mm 4 mps 711 mmHg 59%
    07:00 +15°C° 0 mm 4 mps 711 mmHg 57%
    08:00 +16°C° 0 mm 5 mps 712 mmHg 55%
    09:00 +16°C° 0 mm 5 mps 712 mmHg 53%
    10:00 +19°C° 0 mm 5 mps 712 mmHg 48%
    11:00 +20°C° 0 mm 5 mps 711 mmHg 44%
    12:00 +22°C° 0 mm 4 mps 711 mmHg 39%
    13:00 +23°C° 0 mm 4 mps 711 mmHg 37%
    14:00 +25°C° 0 mm 4 mps 710 mmHg 34%
    15:00 +26°C° 0 mm 4 mps 709 mmHg 32%
    16:00 +25°C° 0 mm 4 mps 709 mmHg 33%
    17:00 +25°C° 0 mm 4 mps 709 mmHg 35%
    18:00 +24°C° 0 mm 3 mps 709 mmHg 36%
    19:00 +22°C° 0 mm 4 mps 709 mmHg 38%
    20:00 +22°C° 0 mm 4 mps 709 mmHg 39%
    21:00 +21°C° 0 mm 5 mps 710 mmHg 40%
    22:00 +21°C° 0 mm 5 mps 709 mmHg 41%
    23:00 +21°C° 0 mm 5 mps 709 mmHg 41%

    20 December, Thursday

    Time Temperature Precipitation Wind Pressure Humidity
    00:00 +20°C° 0 mm 5 mps 709 mmHg 42%
    01:00 +20°C° 0 mm 5 mps 708 mmHg 41%
    02:00 +20°C° 0 mm 5 mps 708 mmHg 40%
    03:00 +19°C° 0 mm 5 mps 708 mmHg 39%
    04:00 +19°C° 0 mm 5 mps 708 mmHg 39%
    05:00 +19°C° 0 mm 5 mps 708 mmHg 39%
    06:00 +19°C° 0 mm 5 mps 708 mmHg 39%
    07:00 +19°C° 0 mm 5 mps 709 mmHg 36%
    08:00 +20°C° 0 mm 5 mps 709 mmHg 34%
    09:00 +21°C° 0 mm 6 mps 710 mmHg 31%
    10:00 +22°C° 0 mm 5 mps 710 mmHg 29%
    11:00 +23°C° 0 mm 5 mps 710 mmHg 27%
    12:00 +25°C° 0 mm 5 mps 710 mmHg 24%
    13:00 +25°C° 0 mm 5 mps 709 mmHg 24%
    14:00 +25°C° 0 mm 5 mps 709 mmHg 24%
    15:00 +23°C° 0 mm 5 mps 708 mmHg 24%
    16:00 +22°C° 0 mm 5 mps 709 mmHg 26%
    17:00 +21°C° 0 mm 5 mps 709 mmHg 27%
    18:00 +20°C° 0 mm 5 mps 709 mmHg 29%
    19:00 +20°C° 0 mm 5 mps 710 mmHg 30%
    20:00 +19°C° 0 mm 5 mps 710 mmHg 32%
    21:00 +17°C° 0 mm 5 mps 710 mmHg 34%
    22:00 +17°C° 0 mm 5 mps 710 mmHg 34%
    23:00 +17°C° 0 mm 4 mps 710 mmHg 35%

    21 December, Friday

    Time Temperature Precipitation Wind Pressure Humidity
    00:00 +15°C° 0 mm 4 mps 710 mmHg 36%
    01:00 +16°C° 0 mm 3 mps 710 mmHg 37%
    02:00 +14°C° 0 mm 3 mps 710 mmHg 38%
    03:00 +14°C° 0 mm 3 mps 710 mmHg 39%
    04:00 +14°C° 0 mm 3 mps 710 mmHg 40%
    05:00 +13°C° 0 mm 3 mps 710 mmHg 42%
    06:00 +13°C° 0 mm 3 mps 711 mmHg 43%
    07:00 +13°C° 0 mm 3 mps 711 mmHg 42%
    08:00 +14°C° 0 mm 3 mps 712 mmHg 40%
    09:00 +16°C° 0 mm 3 mps 712 mmHg 39%
    10:00 +16°C° 0 mm 3 mps 712 mmHg 36%
    11:00 +17°C° 0 mm 3 mps 712 mmHg 33%
    12:00 +18°C° 0 mm 3 mps 712 mmHg 30%
    13:00 +19°C° 0 mm 3 mps 711 mmHg 30%
    14:00 +19°C° 0 mm 3 mps 711 mmHg 29%
    15:00 +20°C° 0 mm 3 mps 710 mmHg 28%
    16:00 +19°C° 0 mm 3 mps 710 mmHg 30%
    17:00 +19°C° 0 mm 3 mps 711 mmHg 31%
    18:00 +18°C° 0 mm 3 mps 711 mmHg 33%
    19:00 +17°C° 0 mm 3 mps 711 mmHg 35%
    20:00 +17°C° 0 mm 3 mps 711 mmHg 36%
    21:00 +16°C° 0 mm 3 mps 711 mmHg 38%
    22:00 +16°C° 0 mm 3 mps 711 mmHg 39%
    23:00 +14°C° 0 mm 3 mps 711 mmHg 41%

    22 December, Saturday

    Time Temperature Precipitation Wind Pressure Humidity
    00:00 +15°C° 0 mm 2 mps 711 mmHg 42%
    01:00 +13°C° 0 mm 3 mps 710 mmHg 43%
    02:00 +13°C° 0 mm 3 mps 710 mmHg 45%
    03:00 +12°C° 0 mm 3 mps 710 mmHg 46%
    04:00 +12°C° 0 mm 3 mps 710 mmHg 47%
    05:00 +13°C° 0 mm 2 mps 710 mmHg 48%
    06:00 +12°C° 0 mm 2 mps 710 mmHg 50%
    07:00 +13°C° 0 mm 2 mps 711 mmHg 48%
    08:00 +13°C° 0 mm 2 mps 711 mmHg 46%
    09:00 +14°C° 0 mm 1 mps 712 mmHg 44%
    10:00 +15°C° 0 mm 1 mps 712 mmHg 41%
    11:00 +16°C° 0 mm 1 mps 711 mmHg 37%
    12:00 +16°C° 0 mm 0 mps 711 mmHg 34%
    13:00 +16°C° 0 mm 0 mps 711 mmHg 32%
    14:00 +17°C° 0 mm 0 mps 710 mmHg 30%
    15:00 +18°C° 0 mm 0 mps 710 mmHg 28%
    16:00 +19°C° 0 mm 1 mps 710 mmHg 29%
    17:00 +19°C° 0 mm 1 mps 710 mmHg 30%
    18:00 +19°C° 0 mm 1 mps 710 mmHg 32%
    19:00 +17°C° 0 mm 2 mps 710 mmHg 32%
    20:00 +17°C° 0 mm 2 mps 710 mmHg 33%
    21:00 +16°C° 0 mm 2 mps 711 mmHg 34%
    22:00 +16°C° 0 mm 2 mps 710 mmHg 35%
    23:00 +15°C° 0 mm 2 mps 710 mmHg 36%
    Show more